FW5243 Weather Reports


time (UTC)temp
C
wind
direction
speed
KPH
gust
KPH
rain 1hr
cm
rain 24hr
cm
rain mn
cm
humidity
%
barometer
mb
20260505023014 16 131 4.8 11.3 0.00 0.00 0.00 58 1010.0
20260505021510 16 178 6.4 19.3 0.00 0.00 0.00 57 1010.0
20260505020010 16 139 4.8 17.7 0.00 0.00 0.00 59 1009.9
20260505014509 16 158 6.4 17.7 0.00 0.00 0.00 58 1010.0
20260505013009 16 159 4.8 14.5 0.00 0.00 0.00 59 1009.9
20260505011510 16 98 4.8 16.1 0.00 0.00 0.00 58 1010.0
20260505010016 16 138 4.8 19.3 0.00 0.00 0.00 57 1009.8
20260505004508 17 148 8.0 17.7 0.00 0.00 0.00 55 1009.7
20260505003009 16 157 6.4 16.1 0.00 0.00 0.00 56 1009.5
20260505001507 16 163 3.2 8.0 0.00 0.00 0.00 56 1009.3
20260505000007 17 179 6.4 17.7 0.00 0.00 0.00 51 1009.2
20260504234507 17 192 8.0 16.1 0.00 0.00 0.00 52 1009.2
20260504233105 17 184 6.4 14.5 0.00 0.00 0.00 53 1009.2
20260504231505 17 180 8.0 14.5 0.00 0.00 0.00 53 1009.0
20260504230004 18 178 6.4 12.9 0.00 0.00 0.00 50 1009.0
20260504224503 18 190 3.2 14.5 0.00 0.00 0.00 51 1008.9
20260504223002 19 183 4.8 16.1 0.00 0.00 0.00 50 1008.7
20260504221612 19 181 4.8 17.7 0.00 0.00 0.00 50 1008.8
20260504220100 20 159 6.4 14.5 0.00 0.00 0.00 49 1008.9
20260504214608 20 186 1.6 11.3 0.00 0.00 0.00 49 1008.9
20260504213112 21 175 1.6 22.5 0.00 0.00 0.00 49 1008.8
20260504211555 21 171 3.2 11.3 0.00 0.00 0.00 47 1008.9
20260504210053 21 163 3.2 20.9 0.00 0.00 0.00 51 1009.1
20260504204558 20 177 4.8 19.3 0.00 0.00 0.00 54 1009.3
20260504203052 20 171 4.8 14.5 0.00 0.00 0.00 49 1009.6
20260504201548 20 219 6.4 16.1 0.00 0.00 0.00 48 1009.8
20260504200046 20 192 6.4 20.9 0.00 0.00 0.00 45 1010.1
20260504194554 20 180 6.4 16.1 0.00 0.00 0.00 52 1010.2
20260504193043 20 194 9.7 20.9 0.00 0.00 0.00 48 1010.4
20260504191542 20 191 4.8 20.9 0.00 0.00 0.00 44 1010.4
20260504190040 20 163 6.4 29.0 0.00 0.00 0.00 46 1010.5
20260504184539 20 98 6.4 19.3 0.00 0.00 0.00 46 1010.7
20260504183036 20 207 11.3 30.6 0.00 0.00 0.00 44 1010.9
20260504181538 20 126 11.3 19.3 0.00 0.00 0.00 46 1010.8
20260504180038 19 153 4.8 25.7 0.00 0.00 0.00 54 1011.1
20260504174532 18 202 12.9 24.1 0.00 0.00 0.00 51 1011.1
20260504173033 19 155 9.7 27.4 0.00 0.00 0.00 49 1011.5
20260504171532 18 196 8.0 16.1 0.00 0.00 0.00 50 1011.5
20260504081517 7 143 1.6 9.7 0.00 0.00 0.00 63 1014.9
20260504050001 6 128 0.0 3.2 0.00 0.00 0.00 67 1014.9
20260504044500 6 121 0.0 3.2 0.00 0.00 0.00 66 1015.0
20260504043112 7 121 0.0 4.8 0.00 0.00 0.00 65 1014.9
20260504041556 7 123 0.0 6.4 0.00 0.00 0.00 64 1014.7
20260504040113 7 121 0.0 6.4 0.00 0.00 0.00 63 1014.7
20260504034554 7 158 0.0 4.8 0.00 0.00 0.00 63 1014.7
20260504033053 7 102 0.0 3.2 0.00 0.00 0.00 62 1014.6
20260504031557 7 153 0.0 4.8 0.00 0.00 0.00 61 1014.6
20260504030051 7 122 0.0 4.8 0.00 0.00 0.00 61 1014.7
20260504024551 7 130 0.0 3.2 0.00 0.00 0.00 62 1014.7